Weather in Polovinnoye

Russia / Kurgan Oblast     54°41′50″N   63°50′33″E
temp.,
°C
wind,
m/s
gust,
m/s
humid.,
%
clouds,
%
prec.,
mm/h
press.,
hPa
HPBL,
m
15 april, thu
thu1523:00+10sw34635 0.0 102944
02:00+8wsw346953 0.0 102849
05:00+7wsw33735 0.0 102836
08:00+9sw36725 0.0 1027145
11:00+14sw46475 0.0 1026441
14:00+18sw56345 0.0 1024783
17:00+18wsw46345 0.0 1022823
20:00+13sw33495 0.0 102226
16 april, fri
fri1623:00+11sw4457100 0.0 102143
02:00+9w336474 0.0 102026
05:00+8wnw2373100 0.0 102015
08:00+10nnw367382 0.0 1020176
11:00+14nne666923 0.0 1021743
14:00+10ne7778100 0.0 1023673
17:00+8ne6875100 0.0 1024604
20:00+7ene477699 0.0 1024526
17 april, sat
sat1723:00+6ene358398 0.0 1024303
02:00+5ene2583100 0.0 1023174
05:00+4ene248293 0.0 102380
08:00+5ene2472100 0.0 1023206
11:00+7nne236498 0.0 1024566
14:00+10n125061 0.0 10221266
17:00+11wnw234896 0.0 10211678
20:00+9w356387 0.0 1020117
18 april, sun
sun1823:00+6w4779100 0.0 1020236
02:00+5w34855 0.0 101881
05:00+3wnw3791100 0.0 1016150
08:00+5wnw596570 0.0 1015480
11:00+8nw79495 0.0 10141392
14:00+7nnw91066100 0.1 10141237
17:00+5n9113584 0.3 10171854
20:00+1nne812505 0.0 10211342
19 april, mon
mon1923:00−2nne812440 0.0 10251387
02:00−4nne711453 0.0 10271554
05:00−5n710465 0.0 10291472
08:00−5nne8103989 0.0 10311598
11:00−2n81031100 0.0 10312157
14:00−1n81129100 0.0 10312565
17:000n81027100 0.0 10322491
20:00−3n36405 0.0 1033121